Location: Moy Burn
(57.3833°N, 4.0667°W)
Time: 11:57:51
(UTC+00:00)

Cosmos 2360 Rocket - Pass Details

Date: 08 August 2020
Orbit: 833 x 845 km, 71.0° (Epoch: 21 September)

Event Time Altitude Azimuth Distance (km) Brightness Sun altitude
Rises 22:07:59 0° 322° (NW) 3,419 7.5 -11.7°
Reaches altitude 10° 22:10:28 10° 326° (NW) 2,480 6.2 -11.9°
Maximum altitude 22:16:09 66° 49° (NE) 923 2.4 -12.3°
Enters shadow 22:20:47 15° 129° (SE) 2,101 3.7 -12.6°
